User: anonymous   Login
Location: Bismarck
(46.7731°N, 100.8200°W)
Time: 01:41:36
(UTC-05:00)
Language:

Landsat 7 - Orbit

View from above orbital plane
View from above orbital plane
View from above satellite
View from above satellite

Ground track
Ground track

The orbit data is extracted from the following two-line orbital elements,

1 25682U 99020A   15089.78429362  .00000604  00000-0  14406-3 0  9995
2 25682 098.2248 160.7077 0000939 087.6985 272.4319 14.57113063848728
Epoch (UTC): 30 March 2015 18:49:22
Eccentricity: 0.0000939
inclination: 98.2248°
perigee height: 702 km
apogee height: 703 km
right ascension of ascending node: 160.7077°
argument of perigee: 87.6985°
revolutions per day: 14.57113063
mean anomaly at epoch: 272.4319°
orbit number at epoch: 84872

The dashed part of the orbit path shows where the satellite is in the earth's shadow,  

DLR